Temperature
10 10 9 9 9 9 9 9 9 8 8 8 8 8 8 8 8 8 8 8 8 8 8 8 8 8 8 8 8 8 8 8 7 7 7 7 7 7 7 7 7 7 7
9 9 9 9 9 9 9 9 8 8 8 8 8 8 8 7 7 7 7 7 7 7 7 7 7 7 7 7 7 7 7 7 7 6 6 6 6 7 7 7 7 7 6
9 9 9 9 9 9 8 8 8 8 8 7 7 7 7 7 7 7 7 7 7 7 7 7 7 7 7 7 7 7 7 7 7 6 6 6 6 6 6 6 6 6 6
9 9 9 9 8 8 8 8 8 8 7 7 7 7 7 7 7 7 7 6 6 6 6 6 6 6 6 6 6 6 6 6 6 6 6 6 6 6 5 6 6 6 6
8 9 9 8 8 8 8 8 7 7 7 7 6 6 6 6 6 6 6 6 6 6 6 6 6 6 6 6 6 6 6 6 6 6 6 6 5 5 5 5 5 5 5
8 8 8 8 8 8 7 7 7 7 7 6 6 6 6 6 6 6 6 6 6 6 5 5 5 5 5 5 5 5 5 5 5 5 5 5 5 5 5 5 5 5 5
8 8 8 8 7 7 7 7 7 7 6 6 6 6 5 5 5 5 5 5 5 5 5 5 5 5 5 5 5 5 5 5 5 5 5 5 5 5 4 4 4 4 4
7 7 7 7 7 7 6 6 6 6 6 6 5 5 5 5 5 5 5 5 5 5 5 5 5 4 4 4 4 4 4 4 4 4 4 4 4 4 4 4 4 3 3
6 7 7 7 7 6 6 6 6 6 5 5 5 5 5 5 5 5 4 4 4 4 4 4 4 4 4 4 4 4 4 4 4 4 4 4 4 3 3 3 3 3 2
6 6 6 6 6 6 6 5 5 5 5 5 5 5 4 4 4 4 4 4 4 4 4 3 3 3 3 3 3 3 3 3 3 3 3 3 3 3 3 3 2 2 2
5 5 6 6 5 5 5 5 5 5 5 5 4 4 4 4 4 4 4 3 3 3 3 3 3 3 3 3 3 3 3 3 3 3 3 3 3 3 3 2 2 2 2
5 5 5 5 5 5 5 4 4 4 4 4 4 4 4 4 4 3 3 3 3 3 3 3 2 2 2 2 2 2 2 2 2 2 2 2 2 2 2 2 2 2 1
4 4 4 4 4 4 4 4 4 4 4 4 4 3 3 3 3 3 3 3 2 2 2 2 2 2 2 2 2 2 2 2 2 2 2 2 2 2 2 2 1 1 1
3 3 3 3 3 4 4 4 3 3 3 3 3 3 3 3 3 3 2 2 2 2 2 2 2 2 1 1 1 1 1 1 1 1 1 1 1 1 1 1 1 1 1
3 3 3 3 3 3 3 3 3 3 3 3 3 3 3 2 2 2 2 2 2 2 2 1 1 1 1 1 1 1 1 1 1 1 1 1 1 1 1 1 1 1 0
2 2 2 2 2 2 2 2 2 2 2 2 2 2 2 2 2 2 1 1 1 1 1 1 1 0 0 0 0 0 0 0 1 1 0 0 0 0 0 0 0 0 0
2 2 2 2 2 2 2 2 2 2 2 2 2 2 2 1 1 1 1 1 1 1 1 0 0 -0 0 0 0 0 0 0 0 -0 -0 -0 -0 -0 -0 -0 -0 -0 -0
1 1 1 1 1 1 1 1 1 1 1 1 1 1 1 1 1 1 1 1 0 0 0 0 -0 -0 -0 -0 -0 -0 -0 -1 -0 -0 -1 -1 -1 -0 -0 -0 -0 -0 -0
1 1 0 1 1 1 1 1 1 1 1 1 1 1 1 1 0 0 0 0 0 -0 -0 -0 -1 -1 -1 -1 -1 -1 -1 -1 -1 -1 -1 -1 -1 -1 -1 -1 -1 -1 -1
0 -0 -0 0 0 0 0 0 0 0 0 0 0 0 0 0 -0 -0 -0 -0 -0 -0 -1 -1 -1 -1 -1 -1 -1 -1 -1 -1 -1 -1 -1 -1 -1 -1 -1 -1 -1 -1 -1
-0 -0 -0 -0 -0 -0 -0 -0 -0 -0 -0 -0 -0 -0 -0 -1 -1 -1 -1 -1 -1 -1 -1 -1 -1 -1 -1 -1 -1 -2 -2 -2 -2 -2 -2 -2 -2 -2 -2 -2 -2 -2 -2
-1 -1 -1 -1 -1 -1 -1 -1 -1 -1 -1 -1 -1 -1 -1 -1 -1 -1 -1 -1 -1 -1 -1 -2 -2 -2 -2 -2 -2 -2 -2 -2 -2 -2 -2 -2 -2 -2 -2 -2 -2 -2 -2
-1 -1 -1 -1 -1 -1 -1 -1 -1 -1 -1 -1 -1 -1 -2 -2 -2 -2 -2 -2 -2 -2 -2 -2 -2 -2 -2 -2 -2 -2 -2 -2 -2 -2 -2 -2 -2 -2 -2 -2 -3 -3 -3
-2 -2 -2 -2 -2 -2 -2 -2 -2 -2 -2 -2 -2 -2 -2 -2 -2 -2 -2 -2 -2 -2 -2 -3 -3 -2 -2 -2 -3 -3 -3 -3 -3 -3 -3 -3 -3 -3 -3 -3 -3 -3 -3
-3 -3 -2 -2 -2 -2 -2 -2 -3 -2 -2 -2 -3 -3 -3 -3 -3 -3 -3 -3 -3 -3 -3 -3 -3 -3 -3 -3 -3 -3 -3 -3 -3 -3 -3 -3 -3 -3 -3 -3 -4 -4 -4
-3 -3 -3 -3 -3 -3 -3 -3 -3 -3 -3 -3 -3 -3 -3 -3 -3 -3 -3 -3 -3 -3 -3 -3 -3 -3 -3 -3 -3 -3 -3 -3 -3 -3 -3 -3 -3 -3 -3 -4 -4 -4 -4
Wind_Speed
5 3 3 3 3 3 4 5 4 4 4 3 3 2 2 2 1 1 2 3 3 3 3 2 2 3 2 1 1 1 1 1 0 1 1 2 2 1 1 1 1 0 1
3 3 3 3 4 4 4 4 5 4 4 4 3 2 2 2 2 2 2 3 3 3 3 3 3 2 2 1 1 1 1 0 0 1 1 0 2 2 1 1 1 1 0
7 5 4 4 4 4 5 4 5 4 4 3 2 1 1 1 0 1 2 2 3 3 3 4 4 3 3 3 2 2 2 1 1 0 2 2 3 2 2 1 1 1 1
6 6 6 6 6 6 5 5 5 4 4 4 4 5 3 3 4 3 2 2 3 4 3 4 4 4 3 3 3 2 1 2 2 1 1 1 2 1 1 2 2 2 2
6 6 7 7 6 5 5 4 4 4 4 4 5 5 4 3 2 2 2 2 2 3 4 4 3 3 3 3 3 2 2 2 2 2 1 0 1 1 2 2 3 2 2
6 5 4 4 4 3 4 4 4 4 4 5 5 6 6 4 3 3 4 3 2 2 3 4 3 3 3 4 3 3 3 2 2 2 2 1 1 1 1 2 3 3 3
5 4 4 4 4 4 4 4 4 4 4 5 6 6 6 6 6 6 5 4 3 3 4 4 3 3 4 4 4 3 3 3 3 3 2 2 2 2 2 2 2 2 2
3 4 5 5 5 5 5 5 5 5 5 5 5 5 5 5 5 5 5 5 4 4 4 4 4 4 4 4 4 3 3 3 3 4 3 3 3 2 2 2 2 2 2
2 3 3 4 5 5 6 6 5 5 5 5 5 5 5 5 5 5 4 4 4 3 4 4 4 3 3 4 4 3 3 3 4 4 3 3 3 2 2 2 2 3 3
2 2 2 3 4 5 5 4 5 5 5 5 5 5 5 5 5 4 4 4 4 3 4 4 4 4 4 4 4 4 3 4 4 3 4 4 3 3 2 3 3 3 4
2 3 3 3 3 3 4 4 4 4 4 4 4 4 4 4 4 4 5 4 4 4 5 5 5 4 4 4 4 4 4 4 4 4 4 5 3 3 3 2 2 3 3
2 3 3 3 2 2 2 3 4 4 4 4 4 4 4 3 4 4 4 4 4 4 4 4 5 5 5 5 5 5 5 5 5 5 4 5 3 3 3 3 3 3 3
3 3 3 3 3 3 2 2 3 4 3 3 4 3 3 3 4 4 4 4 4 4 4 4 5 5 5 5 5 5 5 6 6 5 5 5 4 4 4 4 4 3 3
3 3 3 3 3 3 3 3 3 3 3 3 3 3 4 4 4 4 4 4 4 5 5 5 5 5 4 5 5 5 5 5 5 5 5 5 6 6 5 5 5 4 4
3 4 4 4 4 4 4 3 3 3 2 3 3 4 4 3 3 3 3 3 4 4 4 4 4 4 4 5 5 5 5 5 5 5 5 5 6 7 6 5 4 4 4
4 5 5 5 4 4 4 4 3 3 2 3 3 3 3 2 3 4 3 3 3 3 4 4 5 5 4 5 7 5 5 5 5 5 5 5 5 7 8 8 6 5 5
5 5 6 5 5 5 4 4 4 3 2 2 3 2 2 3 3 3 3 4 4 4 4 4 5 5 5 6 7 6 5 5 5 5 5 4 5 5 5 6 7 7 7
5 6 5 5 5 4 4 3 2 2 2 2 2 2 2 3 3 3 3 3 3 4 4 4 4 4 5 6 6 6 4 4 5 5 5 5 5 5 5 5 4 5 5
5 5 5 5 4 4 3 3 2 2 2 2 3 3 3 3 2 3 3 3 3 3 3 4 4 5 5 6 6 5 3 4 4 5 5 5 6 7 5 4 4 4 4
4 4 4 3 4 4 2 2 2 2 3 4 3 3 3 2 3 3 3 3 2 3 3 3 4 4 5 6 6 5 3 4 4 4 4 6 6 6 5 4 4 5 4
4 3 3 3 3 3 2 2 2 4 4 3 3 2 2 2 3 2 2 2 2 1 2 3 3 4 4 5 6 5 3 4 4 4 4 4 7 7 6 5 4 5 3
3 3 3 4 4 3 2 2 4 4 3 2 2 2 2 2 2 1 2 2 1 1 2 2 2 2 2 3 4 5 5 4 4 4 3 4 5 6 6 4 3 3 2
4 4 3 4 4 3 2 3 4 3 2 2 2 2 2 2 1 1 1 1 1 1 1 1 2 2 1 2 4 4 4 4 3 3 5 5 4 3 3 3 3 2 2
4 3 3 4 5 4 3 3 3 2 2 2 2 2 2 2 2 1 1 1 1 1 1 2 2 2 2 2 2 2 2 2 2 2 3 3 3 2 2 2 2 1 2
3 3 3 4 5 4 4 3 2 1 2 2 2 2 2 2 2 1 1 1 1 2 2 2 2 2 3 3 3 2 2 2 2 1 1 1 1 1 1 1 1 1 1
3 3 3 4 4 4 4 3 2 1 2 2 2 2 2 2 1 1 2 2 2 3 3 3 3 3 4 5 4 3 3 3 2 1 1 2 2 2 2 1 1 1 1
Wind_Direction
210 182 166 157 149 154 159 166 166 174 164 164 171 177 196 213 217 189 189 177 172 171 160 153 150 144 144 176 163 132 93 27 32 78 1 338 326 317 264 210 160 130 163
203 191 174 165 171 177 177 172 177 181 183 189 193 191 191 208 213 210 203 191 175 179 179 165 169 167 165 164 173 154 147 18 37 141 129 330 326 316 294 229 202 223 1
199 196 188 189 189 190 194 193 188 188 191 186 166 140 102 74 231 242 236 213 191 184 186 181 174 172 176 188 191 183 171 190 279 210 167 171 219 289 294 275 241 237 239
199 196 195 199 202 205 199 195 194 192 195 185 181 178 189 211 227 227 230 232 201 191 192 188 180 179 178 188 197 191 199 178 206 267 292 221 173 182 273 289 281 278 264
201 201 202 204 207 203 198 197 196 202 201 193 192 194 206 219 227 221 217 233 222 202 195 188 183 183 179 186 189 195 194 192 197 196 204 302 345 175 192 261 289 303 283
210 209 205 199 209 202 195 194 196 210 205 198 197 200 206 208 208 220 218 226 235 222 204 191 187 193 187 190 193 197 192 201 203 199 192 194 201 218 191 230 254 272 283
202 207 207 205 209 205 205 203 200 218 216 205 206 210 212 209 210 216 215 219 230 236 229 206 196 201 195 188 185 197 205 205 205 211 219 220 227 218 214 222 247 272 290
209 212 214 212 213 213 210 209 212 221 219 214 220 221 218 216 221 218 217 218 226 229 221 204 199 203 201 193 185 199 215 211 216 221 219 225 233 229 218 212 218 271 286
241 241 242 232 223 218 216 213 215 223 223 219 218 227 223 220 222 221 220 225 229 226 207 199 204 204 203 201 191 211 220 216 222 226 222 228 234 232 227 212 207 202 250
309 304 282 258 239 228 225 220 219 221 223 217 214 222 223 223 217 210 218 223 228 223 215 213 211 211 211 211 203 217 221 220 231 227 225 232 233 224 223 216 220 218 220
292 297 294 286 265 239 222 225 229 227 224 219 216 216 222 221 211 213 218 218 217 214 218 215 215 215 216 212 212 219 217 225 237 232 227 235 228 222 224 226 226 229 219
278 282 292 305 300 272 237 230 234 229 225 220 214 217 218 214 214 222 225 215 215 219 220 215 213 213 217 216 213 219 221 224 234 232 227 234 230 225 227 223 235 239 227
293 302 308 304 292 292 285 264 248 233 232 221 212 220 221 217 220 226 230 225 220 223 222 213 214 217 220 221 218 217 221 227 233 229 225 230 223 229 231 227 234 245 243
277 292 294 291 293 299 293 279 269 244 229 213 208 222 225 221 220 224 229 230 225 225 219 217 219 220 221 223 221 219 223 228 236 235 230 231 227 229 229 231 231 237 237
289 288 289 293 303 306 298 285 274 265 240 217 220 231 235 229 221 225 233 237 238 236 222 217 223 223 219 221 218 220 224 228 239 240 236 236 238 241 237 237 231 229 230
283 289 295 298 294 289 287 289 277 270 255 235 239 241 233 234 233 233 234 236 246 242 221 217 220 224 229 227 224 223 224 228 235 241 243 245 243 248 249 251 247 238 235
280 283 285 280 279 281 278 275 265 267 259 252 255 246 234 236 241 247 241 235 238 229 219 218 219 227 232 230 229 226 220 227 238 242 246 251 256 254 243 252 251 248 247
283 285 287 288 288 285 286 283 271 259 257 259 259 256 244 248 254 251 258 254 241 227 221 221 224 230 236 233 236 232 224 231 241 243 242 240 247 251 244 234 239 246 248
272 273 277 283 290 291 289 291 281 276 272 270 269 266 253 251 255 258 262 271 245 235 225 221 223 230 238 234 237 238 222 232 245 244 242 241 242 252 248 228 234 251 260
282 283 289 294 294 296 292 273 269 270 269 272 274 272 260 254 258 261 267 279 256 236 224 226 230 233 237 241 243 240 221 229 243 249 247 246 248 253 249 228 224 239 245
293 297 299 296 288 291 286 264 268 265 272 279 280 282 278 271 264 268 275 274 264 245 232 233 242 239 240 246 251 251 233 223 234 244 249 250 253 253 255 243 227 236 236
314 313 312 309 307 299 264 262 270 276 287 288 287 288 289 287 287 273 280 273 249 241 246 244 264 260 243 250 253 255 253 243 234 244 250 252 256 252 254 252 246 239 226
312 312 304 308 309 299 253 254 276 285 285 282 280 292 300 296 288 265 269 279 274 240 249 246 265 282 273 252 262 265 264 263 252 247 255 260 263 258 245 247 239 210 192
307 312 316 312 311 311 297 262 272 277 266 267 276 280 284 297 299 284 267 243 247 245 242 241 249 269 277 267 260 260 264 268 265 259 262 262 266 275 250 243 237 216 214
309 309 305 301 300 307 306 301 290 265 255 264 267 273 271 273 280 281 273 261 259 240 240 240 240 244 261 274 280 269 246 230 229 224 216 193 194 223 226 218 220 213 203
309 309 302 298 302 307 305 301 290 257 242 254 259 257 256 264 263 268 317 333 309 295 281 272 267 275 275 287 285 284 278 277 265 241 204 216 218 223 224 224 221 214 212
Height
1507 1508 1509 1510 1511 1511 1512 1513 1513 1514 1515 1515 1515 1515 1516 1516 1517 1517 1518 1518 1518 1518 1518 1518 1518 1518 1518 1518 1518 1519 1519 1519 1519 1520 1519 1520 1520 1520 1520 1519 1519 1519 1519
1504 1505 1506 1507 1508 1508 1509 1509 1510 1511 1511 1512 1513 1513 1513 1513 1514 1514 1514 1514 1515 1515 1515 1515 1515 1515 1515 1515 1516 1516 1516 1516 1517 1518 1517 1517 1518 1517 1517 1517 1517 1517 1517
1500 1502 1503 1504 1505 1505 1506 1506 1507 1508 1508 1509 1510 1510 1510 1510 1510 1510 1511 1511 1511 1511 1511 1511 1512 1512 1512 1512 1512 1513 1513 1513 1514 1515 1516 1515 1514 1514 1514 1514 1515 1515 1514
1498 1499 1500 1501 1501 1502 1503 1503 1504 1504 1505 1505 1505 1505 1505 1505 1505 1506 1507 1507 1507 1507 1507 1508 1508 1508 1508 1509 1509 1510 1510 1511 1511 1512 1512 1513 1512 1513 1512 1512 1512 1512 1511
1495 1495 1496 1497 1498 1499 1499 1500 1500 1501 1501 1501 1501 1502 1502 1502 1503 1503 1503 1503 1504 1504 1503 1504 1504 1504 1504 1505 1506 1506 1507 1507 1508 1508 1508 1509 1509 1509 1509 1508 1509 1509 1509
1492 1493 1494 1494 1495 1495 1496 1496 1496 1497 1497 1497 1497 1498 1498 1498 1498 1499 1499 1499 1499 1499 1499 1500 1500 1500 1501 1501 1502 1503 1503 1504 1504 1505 1505 1506 1506 1506 1506 1505 1505 1505 1505
1489 1490 1490 1491 1491 1492 1492 1492 1492 1492 1493 1493 1493 1494 1494 1494 1494 1495 1495 1495 1495 1495 1495 1495 1495 1496 1496 1497 1498 1499 1499 1500 1501 1501 1501 1502 1503 1503 1503 1503 1501 1501 1501
1486 1487 1488 1488 1488 1488 1488 1488 1488 1488 1488 1489 1489 1489 1490 1490 1490 1491 1491 1491 1491 1491 1491 1491 1492 1492 1492 1493 1494 1495 1495 1496 1497 1497 1498 1498 1499 1499 1499 1500 1499 1498 1497
1484 1485 1485 1485 1485 1485 1485 1485 1485 1485 1485 1485 1485 1485 1486 1486 1486 1486 1487 1487 1487 1487 1487 1487 1488 1488 1488 1489 1489 1490 1491 1492 1493 1493 1494 1494 1495 1495 1495 1496 1496 1496 1494
1482 1482 1482 1482 1482 1482 1482 1482 1481 1481 1481 1481 1481 1481 1482 1482 1482 1482 1482 1482 1482 1483 1483 1483 1483 1484 1484 1485 1485 1486 1487 1488 1489 1489 1490 1490 1491 1491 1491 1491 1492 1492 1492
1480 1480 1479 1479 1479 1478 1478 1478 1478 1478 1478 1478 1478 1477 1477 1477 1478 1478 1478 1478 1478 1478 1478 1478 1479 1479 1480 1481 1481 1482 1483 1484 1484 1485 1485 1486 1487 1487 1487 1487 1488 1488 1488
1479 1478 1477 1476 1475 1475 1475 1474 1474 1474 1474 1474 1474 1474 1474 1474 1473 1473 1473 1474 1473 1474 1474 1474 1475 1475 1475 1476 1477 1478 1478 1479 1480 1481 1481 1482 1483 1483 1483 1483 1483 1483 1483
1477 1476 1475 1473 1473 1472 1471 1471 1471 1471 1471 1471 1470 1470 1470 1469 1469 1469 1469 1469 1469 1469 1470 1470 1470 1470 1471 1472 1473 1473 1474 1475 1476 1476 1477 1478 1478 1478 1479 1479 1479 1479 1479
1475 1474 1472 1471 1470 1469 1469 1468 1468 1468 1467 1467 1467 1466 1466 1465 1465 1465 1465 1465 1465 1464 1465 1465 1465 1466 1467 1468 1468 1469 1470 1471 1471 1472 1472 1473 1473 1474 1474 1474 1474 1475 1474
1472 1471 1470 1469 1467 1467 1466 1466 1465 1465 1464 1463 1463 1462 1462 1462 1461 1461 1460 1460 1460 1460 1460 1460 1461 1462 1462 1463 1464 1465 1466 1466 1467 1467 1468 1468 1469 1469 1470 1470 1470 1470 1470
1470 1469 1467 1466 1465 1464 1463 1462 1462 1461 1461 1460 1459 1459 1458 1458 1457 1457 1456 1456 1456 1455 1456 1456 1457 1457 1458 1459 1460 1461 1461 1462 1462 1462 1463 1463 1464 1464 1465 1465 1465 1466 1466
1466 1466 1464 1463 1462 1461 1460 1459 1458 1458 1457 1456 1456 1455 1454 1453 1453 1452 1452 1451 1451 1451 1451 1452 1452 1453 1454 1455 1455 1456 1457 1457 1457 1458 1458 1459 1459 1460 1460 1460 1460 1461 1461
1463 1462 1461 1459 1459 1458 1457 1456 1455 1454 1454 1453 1452 1451 1450 1449 1449 1448 1448 1447 1447 1447 1447 1447 1448 1449 1449 1450 1451 1452 1452 1453 1453 1453 1454 1454 1454 1455 1455 1455 1455 1456 1456
1461 1459 1458 1456 1455 1454 1453 1452 1451 1451 1450 1449 1449 1448 1447 1446 1445 1444 1444 1443 1443 1443 1443 1443 1444 1444 1445 1446 1447 1448 1448 1448 1448 1449 1449 1449 1450 1450 1451 1451 1450 1450 1451
1457 1456 1454 1453 1452 1451 1450 1449 1448 1447 1446 1446 1445 1445 1444 1443 1442 1441 1440 1440 1439 1439 1439 1440 1440 1441 1441 1442 1443 1444 1444 1444 1444 1444 1444 1445 1445 1446 1446 1446 1445 1445 1446
1454 1452 1451 1449 1448 1447 1446 1445 1444 1444 1443 1443 1441 1441 1440 1439 1439 1438 1437 1437 1436 1436 1436 1436 1436 1437 1438 1438 1439 1439 1440 1440 1439 1439 1440 1440 1440 1441 1441 1441 1441 1441 1442
1449 1448 1447 1446 1445 1444 1443 1442 1442 1441 1441 1439 1438 1438 1437 1437 1436 1435 1434 1434 1433 1433 1433 1433 1433 1433 1434 1434 1435 1435 1436 1436 1436 1435 1435 1435 1436 1436 1436 1437 1437 1437 1438
1446 1445 1444 1443 1442 1441 1440 1439 1439 1438 1437 1436 1435 1435 1434 1434 1433 1432 1432 1431 1431 1430 1430 1430 1430 1430 1430 1431 1431 1431 1432 1432 1432 1431 1431 1431 1431 1432 1432 1433 1433 1433 1433
1444 1442 1441 1439 1438 1438 1437 1436 1435 1435 1434 1433 1432 1432 1431 1431 1430 1430 1429 1429 1428 1428 1428 1428 1428 1428 1428 1428 1428 1428 1428 1428 1428 1427 1427 1427 1428 1428 1429 1429 1429 1429 1429
1441 1440 1439 1437 1436 1434 1433 1433 1432 1431 1430 1430 1430 1429 1428 1428 1427 1427 1427 1427 1427 1427 1427 1426 1426 1426 1425 1426 1426 1425 1425 1424 1424 1424 1424 1424 1424 1425 1425 1425 1425 1426 1426
1439 1437 1436 1435 1433 1432 1430 1430 1429 1428 1428 1427 1426 1426 1426 1425 1425 1425 1425 1425 1425 1425 1424 1424 1424 1424 1424 1424 1423 1423 1422 1422 1421 1421 1421 1421 1421 1421 1421 1422 1422 1422 1422